Weather History for Kansas City International, MO

Change the Weather History Date:

Monday, May 12, 2014

  Actual Average Record
Temperature  
Mean Temperature 63 °F 63 °F  
Max Temperature 77 °F 74 °F 93 °F (1962)
Min Temperature 49 °F 53 °F 33 °F (2013)
Degree Days  
Heating Degree Days 2 4  
Month to date heating degree days 36 59  
Since 1 July heating degree days 5711 5079  
Cooling Degree Days 0 2  
Month to date cooling degree days 47 18  
Year to date cooling degree days 56 46  
Growing Degree Days 12 (Base 50)    
Moisture  
Dew Point 60 °F    
Average Humidity 77    
Maximum Humidity 93    
Minimum Humidity 60    
Precipitation  
Precipitation 0.74 in 0.17 in 2.50 in (2010)
Month to date precipitation 0.77 2.01  
Year to date precipitation 8.06 10.61  
Snow  
Snow 0.00 in 0.00 in 0.00 in ()
Month to date snowfall 0.0 0.0  
Since 1 July snowfall 26.1 18.8  
Snow Depth 0.00 in    
Sea Level Pressure  
Sea Level Pressure 29.79 in    
Wind  
Wind Speed 12 mph (WSW)    
Max Wind Speed 22 mph    
Max Gust Speed 25 mph    
Visibility 8 miles    
Events Rain , Thunderstorm    
T = Trace of Precipitation, MM = Missing Value Source: NWS Daily Summary

Daily Weather History Graph

Daily Weather History Graph

Search for Another Location

Airport:

Trip Planner

Search our weather history database for the weather conditions in past years. The results will help you decide how hot, cold, wet, or windy it might be!

Date:

Astronomy

May. 12, 2014 Rise Set
Actual Time 6:08 AM CDT 8:22 PM CDT
Civil Twilight 5:38 AM CDT 8:52 PM CDT
Nautical Twilight 5:01 AM CDT 9:29 PM CDT
Astronomical Twilight 4:21 AM CDT 10:10 PM CDT
Moon 6:22 PM CDT (5/12) 4:46 AM CDT (5/12)
Length of Visible Light 15h 14m
Length of Day
14h 14m
Waxing Gibbous, 95% of the Moon is Illuminated
May 12
Waxing Gibbous
May 14
Full
May 21
Last Quarter
May 28
New
Jun 5
First Quarter

Hourly Weather History & Observations

Time (CDT) Temp. Dew Point Humidity Pressure Visibility Wind Dir Wind Speed Gust Speed Precip Events Conditions
12:53 AM 77.0 °F 63.0 °F 62% 29.70 in 10.0 mi SSW 6.9 mph - N/A   Overcast
1:53 AM 75.9 °F 64.0 °F 67% 29.69 in 10.0 mi South 9.2 mph - N/A   Overcast
2:53 AM 75.0 °F 64.9 °F 71% 29.67 in 10.0 mi SSE 12.7 mph - N/A Rain Light Rain
3:28 AM 73.9 °F 66.0 °F 76% 29.71 in 8.0 mi South 10.4 mph - 0.00 in Rain , Thunderstorm Light Thunderstorms and Rain
3:53 AM 73.9 °F 66.0 °F 76% 29.68 in 9.0 mi South 10.4 mph - 0.01 in Rain , Thunderstorm Light Thunderstorms and Rain
4:08 AM 72.0 °F 66.9 °F 84% 29.72 in 5.0 mi West 10.4 mph - 0.01 in Rain , Thunderstorm Thunderstorms and Rain
4:21 AM 71.1 °F 68.0 °F 90% 29.73 in 3.0 mi WSW 4.6 mph - 0.08 in Rain , Thunderstorm Thunderstorms and Rain
4:43 AM 71.1 °F 66.9 °F 87% 29.70 in 10.0 mi South 18.4 mph - 0.14 in Rain , Thunderstorm Light Thunderstorms and Rain
4:53 AM 68.0 °F 64.9 °F 90% 29.69 in 9.0 mi SSW 16.1 mph 25.3 mph 0.14 in Rain , Thunderstorm Light Thunderstorms and Rain
5:00 AM 66.9 °F 64.0 °F 90% 29.73 in 6.0 mi SSW 15.0 mph 21.9 mph 0.02 in Rain , Thunderstorm Thunderstorms and Rain
5:23 AM 66.0 °F 64.0 °F 93% 29.72 in 10.0 mi South 11.5 mph - 0.04 in Rain Light Rain
5:53 AM 66.0 °F 63.0 °F 90% 29.67 in 10.0 mi SE 11.5 mph - 0.04 in   Overcast
6:53 AM 68.0 °F 64.0 °F 87% 29.68 in 10.0 mi SSE 15.0 mph - N/A   Mostly Cloudy
7:39 AM 68.0 °F 64.9 °F 90% 29.74 in 10.0 mi North 8.1 mph - 0.01 in   Overcast
7:53 AM 69.1 °F 66.0 °F 90% 29.72 in 10.0 mi Variable 6.9 mph - 0.01 in   Overcast
8:53 AM 69.8 °F 66.2 °F 88% 29.76 in 9.0 mi SE 10.4 mph - N/A   Overcast
9:53 AM 72.0 °F 68.0 °F 87% 29.74 in 7.0 mi WSW 11.5 mph - 0.03 in Rain Heavy Rain
10:43 AM 70.0 °F 66.0 °F 87% 29.77 in 10.0 mi SW 9.2 mph - 0.21 in Thunderstorm Thunderstorm
10:53 AM 72.0 °F 66.9 °F 84% 29.74 in 10.0 mi SW 9.2 mph - 0.21 in Thunderstorm Thunderstorm
11:07 AM 72.0 °F 66.0 °F 81% 29.77 in 10.0 mi SW 10.4 mph - N/A   Mostly Cloudy
11:53 AM 73.0 °F 66.0 °F 79% 29.75 in 10.0 mi SW 12.7 mph - N/A   Overcast
12:20 PM 72.0 °F 64.9 °F 78% 29.78 in 10.0 mi SSW 9.2 mph - N/A   Overcast
12:53 PM 71.1 °F 64.0 °F 78% 29.76 in 10.0 mi SW 15.0 mph - N/A   Overcast
1:53 PM 66.9 °F 64.0 °F 90% 29.78 in 3.0 mi WSW 12.7 mph - 0.01 in Rain Light Rain
1:58 PM 66.9 °F 64.0 °F 90% 29.80 in 3.0 mi WSW 9.2 mph - 0.00 in Rain Light Rain
2:25 PM 61.0 °F 59.0 °F 93% 29.82 in 3.0 mi West 15.0 mph - 0.00 in Rain , Thunderstorm Light Thunderstorms and Rain
2:53 PM 59.0 °F 57.9 °F 96% 29.82 in 3.0 mi WNW 13.8 mph - 0.06 in Rain , Thunderstorm Thunderstorms and Rain
3:53 PM 57.0 °F 55.9 °F 96% 29.83 in 2.0 mi NW 13.8 mph 19.6 mph 0.10 in Rain , Thunderstorm Thunderstorms and Rain
4:28 PM 55.9 °F 55.0 °F 97% 29.85 in 6.0 mi WNW 12.7 mph 20.7 mph 0.13 in Rain Light Rain
4:43 PM 55.9 °F 55.0 °F 97% 29.86 in 10.0 mi WNW 10.4 mph - 0.13 in   Overcast
4:53 PM 55.9 °F 55.0 °F 97% 29.85 in 10.0 mi WNW 10.4 mph - 0.13 in   Overcast
5:53 PM 55.0 °F 53.1 °F 93% 29.87 in 10.0 mi NW 11.5 mph 21.9 mph N/A   Overcast
6:53 PM 55.0 °F 50.0 °F 83% 29.87 in 10.0 mi NW 12.7 mph 23.0 mph N/A   Overcast
7:20 PM 54.0 °F 48.0 °F 80% 29.90 in 10.0 mi NW 12.7 mph - N/A   Overcast
7:53 PM 53.1 °F 46.9 °F 80% 29.91 in 10.0 mi NW 11.5 mph 21.9 mph N/A   Overcast
8:53 PM 52.0 °F 46.0 °F 80% 29.95 in 10.0 mi NW 15.0 mph 20.7 mph N/A   Overcast
9:53 PM 50.0 °F 44.6 °F 82% 30.01 in 10.0 mi NW 12.7 mph 23.0 mph N/A   Overcast
10:53 PM 50.0 °F 44.1 °F 80% 29.99 in 10.0 mi NNW 16.1 mph - N/A   Overcast
11:14 PM 50.0 °F 44.1 °F 80% 30.02 in 10.0 mi NNW 10.4 mph - N/A   Overcast
11:53 PM 48.9 °F 44.1 °F 83% 30.04 in 10.0 mi NNW 10.4 mph - N/A   Overcast